Location: Bamobli
(6.6379°N, 10.9396°W)
Time: 20:45:12
(UTC+00:00)

Skynet4D Del rocket - Pass Details

Date: 07 June 2020
Orbit: 763 x 1291 km, 26.9° (Epoch: 05 July)

Event Time Altitude Azimuth Distance (km) Brightness Sun altitude
Rises 05:57:38 0° 294° (WNW) 3,502 6.5 -7.7°
Reaches altitude 10° 06:00:21 10° 291° (WNW) 2,489 5.7 -7.1°
Maximum altitude 06:06:10 68° 209° (SSW) 853 3.6 -5.8°
Drops below altitude 10° 06:11:31 10° 126° (SE) 2,296 6.4 -4.6°
Sets 06:13:56 0° 124° (ESE) 3,210 7.2 -4.0°
